Simultaneous Nadir Overpasses (SNOs) Predictions

Prediction of SNOs between GOES-15 and TERRA Satellite Orbit:

Table of predicted SNOs for the next 14.0 days since TLE Epoch: 12/11/2021
Index Date Time (GOES-15) GOES-15 Lat,Lon TERRA Lat,Lon Distance(km) Time Diff (sec)
1 12/12/2021 18:54:15 -0.14,-127.85 -0.15,-127.83 2.90 80
2 12/14/2021 18:42:00 -0.14,-127.78 -0.76,-124.87 331.84 80
3 12/15/2021 07:06:03 0.12,-127.74 -0.37,-130.05 262.85 80
4 12/17/2021 06:51:08 0.12,-127.67 0.25,-127.09 65.41 80
5 12/19/2021 06:38:53 0.12,-127.58 0.87,-124.13 393.12 80
6 12/19/2021 19:02:47 -0.11,-127.59 0.26,-129.28 192.70 80
7 12/21/2021 18:47:52 -0.11,-127.50 -0.36,-126.32 134.41 80
8 12/22/2021 07:11:55 0.09,-127.45 -0.76,-131.50 460.51 80
9 12/23/2021 18:35:37 -0.10,-127.41 -0.99,-123.36 461.19 80
10 12/24/2021 06:59:39 0.09,-127.36 -0.19,-128.53 133.88 80
